Location: Ernez
(36.4595°N, 29.8755°E)
Time: 09:45:31
(UTC+00:00)

OAO 3 Copernicus - Pass Details

Date: 13 November 2025
Orbit: 689 x 698 km, 35.0° (Epoch: 04 December)

Event Time Altitude Azimuth Distance (km) Brightness Sun altitude
Rises 16:18:12 0° 267° (W) 3,062 9.3 -17.2°
Reaches altitude 10° 16:20:36 10° 266° (W) 2,146 8.1 -17.7°
Maximum altitude 16:25:38 77° 181° (S) 715 4.3 -18.7°
Enters shadow 16:27:37 37° 102° (ESE) 1,074 4.8 -19.1°
